Location: Morosaglia
(42.4360°N, 9.3069°E)
Time: 18:51:32
(UTC+00:00)

Cosmos 1570 Rocket - Pass Details

Date: 07 June 2020
Orbit: 764 x 787 km, 74.1° (Epoch: 02 July)

Event Time Altitude Azimuth Distance (km) Brightness Sun altitude
Exits shadow 00:04:56 66° 206° (SSW) 849 3.9 -24.0°
Maximum altitude 00:05:43 87° 290° (WNW) 783 3.9 -24.0°
Drops below altitude 10° 00:11:01 10° 19° (NNE) 2,326 7.6 -23.8°
Sets 00:13:24 0° 20° (NNE) 3,254 8.7 -23.7°
